Time,TemperatureF,DewpointF,PressureIn,WindDirection,WindDirectionDegrees,WindSpeedMPH,WindSpeedGustMPH,Humidity,HourlyPrecipIn,Conditions,Clouds,dailyrainin,SolarRadiationWatts/m^2,SoftwareType,DateUTC
2013-03-13 00:00:00,60.0,43.3,30.13,SSE,150,4.0,4.0,54,0.00,,,0.00,0,Wunderground v.1.15,2013-03-13 05:00:00,
2013-03-13 00:10:00,59.5,42.3,30.13,SSE,163,3.0,3.0,53,0.00,,,0.00,0,Wunderground v.1.15,2013-03-13 05:10:00,
2013-03-13 00:21:00,59.0,41.9,30.13,SSE,165,2.0,2.0,53,0.00,,,0.00,0,Wunderground v.1.15,2013-03-13 05:21:00,
2013-03-13 00:25:00,58.7,41.6,30.13,SSE,164,1.0,2.0,53,0.00,,,0.00,0,Wunderground v.1.15,2013-03-13 05:25:00,
2013-03-13 00:35:00,58.2,41.1,30.14,SSE,164,1.0,1.0,53,0.00,,,0.00,0,Wunderground v.1.15,2013-03-13 05:35:00,
2013-03-13 00:40:00,58.0,41.0,30.14,SSE,165,0.0,0.0,53,0.00,,,0.00,0,Wunderground v.1.15,2013-03-13 05:40:00,
2013-03-13 00:45:00,57.7,41.2,30.15,SSE,165,0.0,0.0,54,0.00,,,0.00,0,Wunderground v.1.15,2013-03-13 05:45:00,
2013-03-13 00:50:00,57.3,41.3,30.15,SSE,165,0.0,0.0,55,0.00,,,0.00,0,Wunderground v.1.15,2013-03-13 05:50:00,
2013-03-13 00:55:00,57.1,41.1,30.15,SSE,164,0.0,0.0,55,0.00,,,0.00,0,Wunderground v.1.15,2013-03-13 05:55:00,
2013-03-13 01:00:00,56.9,40.9,30.16,SSE,164,0.0,0.0,55,0.00,,,0.00,0,Wunderground v.1.15,2013-03-13 06:00:00,
2013-03-13 01:10:00,56.1,41.5,30.16,SSE,165,0.0,0.0,58,0.00,,,0.00,0,Wunderground v.1.15,2013-03-13 06:10:00,
2013-03-13 01:15:00,55.8,41.2,30.16,SSE,165,0.0,0.0,58,0.00,,,0.00,0,Wunderground v.1.15,2013-03-13 06:15:00,
2013-03-13 01:20:00,55.4,40.9,30.16,SSE,164,0.0,0.0,58,0.00,,,0.00,0,Wunderground v.1.15,2013-03-13 06:20:00,
2013-03-13 01:25:00,55.0,40.9,30.16,SSE,165,0.0,0.0,59,0.00,,,0.00,0,Wunderground v.1.15,2013-03-13 06:25:00,
2013-03-13 01:30:00,54.6,41.0,30.17,SSE,165,0.0,0.0,60,0.00,,,0.00,0,Wunderground v.1.15,2013-03-13 06:30:00,
2013-03-13 01:36:00,54.3,40.3,30.17,SSE,165,0.0,0.0,59,0.00,,,0.00,0,Wunderground v.1.15,2013-03-13 06:36:00,
2013-03-13 01:40:00,54.0,40.4,30.17,SSE,165,0.0,0.0,60,0.00,,,0.00,0,Wunderground v.1.15,2013-03-13 06:40:00,
2013-03-13 01:50:00,53.3,40.6,30.17,SSE,165,0.0,0.0,62,0.00,,,0.00,0,Wunderground v.1.15,2013-03-13 06:50:00,
2013-03-13 01:55:00,52.9,40.6,30.17,SSE,165,0.0,0.0,63,0.00,,,0.00,0,Wunderground v.1.15,2013-03-13 06:55:00,
2013-03-13 02:00:00,52.5,40.7,30.19,SSE,165,0.0,0.0,64,0.00,,,0.00,0,Wunderground v.1.15,2013-03-13 07:00:00,
2013-03-13 02:10:00,51.9,40.5,30.19,SSE,165,0.0,0.0,65,0.00,,,0.00,0,Wunderground v.1.15,2013-03-13 07:10:00,
2013-03-13 02:15:00,51.7,40.7,30.19,SSE,164,0.0,0.0,66,0.00,,,0.00,0,Wunderground v.1.15,2013-03-13 07:15:00,
2013-03-13 02:21:00,51.4,40.8,30.19,SSE,164,1.0,1.0,67,0.00,,,0.00,0,Wunderground v.1.15,2013-03-13 07:21:00,
2013-03-13 02:25:00,51.3,40.7,30.19,SSE,164,1.0,2.0,67,0.00,,,0.00,0,Wunderground v.1.15,2013-03-13 07:25:00,
2013-03-13 02:30:00,51.2,40.6,30.20,SSE,163,1.0,2.0,67,0.00,,,0.00,0,Wunderground v.1.15,2013-03-13 07:30:00,
2013-03-13 02:35:00,51.1,40.5,30.20,SSE,163,1.0,2.0,67,0.00,,,0.00,0,Wunderground v.1.15,2013-03-13 07:35:00,
2013-03-13 02:40:00,51.0,40.4,30.20,SSE,163,1.0,1.0,67,0.00,,,0.00,0,Wunderground v.1.15,2013-03-13 07:40:00,
2013-03-13 02:45:00,50.9,40.3,30.20,SSE,163,1.0,1.0,67,0.00,,,0.00,0,Wunderground v.1.15,2013-03-13 07:45:00,
2013-03-13 02:50:00,50.8,40.2,30.20,SSE,163,0.0,0.0,67,0.00,,,0.00,0,Wunderground v.1.15,2013-03-13 07:50:00,
2013-03-13 02:55:00,50.7,40.1,30.20,SSE,163,0.0,0.0,67,0.00,,,0.00,0,Wunderground v.1.15,2013-03-13 07:55:00,
2013-03-13 03:00:00,50.6,40.4,30.20,SSE,163,0.0,0.0,68,0.00,,,0.00,0,Wunderground v.1.15,2013-03-13 08:00:00,
2013-03-13 03:10:00,50.2,40.0,30.20,SSE,163,0.0,1.0,68,0.00,,,0.00,0,Wunderground v.1.15,2013-03-13 08:10:00,
2013-03-13 03:20:00,49.8,40.0,30.20,SSE,163,1.0,1.0,69,0.00,,,0.00,0,Wunderground v.1.15,2013-03-13 08:20:00,
2013-03-13 03:25:00,49.6,39.8,30.20,SSE,163,0.0,1.0,69,0.00,,,0.00,0,Wunderground v.1.15,2013-03-13 08:25:00,
2013-03-13 03:30:00,49.4,40.0,30.20,SSE,163,0.0,0.0,70,0.00,,,0.00,0,Wunderground v.1.15,2013-03-13 08:30:00,
2013-03-13 03:35:00,49.2,39.8,30.20,SSE,163,0.0,1.0,70,0.00,,,0.00,0,Wunderground v.1.15,2013-03-13 08:35:00,
2013-03-13 03:40:00,49.1,40.1,30.20,SSE,163,0.0,0.0,71,0.00,,,0.00,0,Wunderground v.1.15,2013-03-13 08:40:00,
2013-03-13 03:45:00,49.0,40.0,30.20,SSE,163,0.0,1.0,71,0.00,,,0.00,0,Wunderground v.1.15,2013-03-13 08:45:00,
2013-03-13 03:50:00,48.8,39.8,30.20,SSE,163,0.0,0.0,71,0.00,,,0.00,0,Wunderground v.1.15,2013-03-13 08:50:00,
2013-03-13 04:00:00,48.6,40.3,30.21,SSE,163,0.0,0.0,73,0.00,,,0.00,0,Wunderground v.1.15,2013-03-13 09:00:00,
2013-03-13 04:05:00,48.5,40.2,30.21,SSE,159,0.0,1.0,73,0.00,,,0.00,0,Wunderground v.1.15,2013-03-13 09:05:00,
2013-03-13 04:10:00,48.5,40.6,30.21,SSE,159,1.0,1.0,74,0.00,,,0.00,0,Wunderground v.1.15,2013-03-13 09:10:00,
2013-03-13 04:15:00,48.6,40.7,30.20,SSE,157,1.0,2.0,74,0.00,,,0.00,0,Wunderground v.1.15,2013-03-13 09:15:00,
2013-03-13 04:20:00,48.7,40.8,30.20,SSE,149,1.0,2.0,74,0.00,,,0.00,0,Wunderground v.1.15,2013-03-13 09:20:00,
2013-03-13 04:25:00,48.9,41.0,30.20,SE,146,2.0,2.0,74,0.00,,,0.00,0,Wunderground v.1.15,2013-03-13 09:25:00,
2013-03-13 04:30:00,49.1,40.8,30.20,SE,145,2.0,2.0,73,0.00,,,0.00,0,Wunderground v.1.15,2013-03-13 09:30:00,
2013-03-13 04:35:00,49.2,40.9,30.20,SE,138,2.0,2.0,73,0.00,,,0.00,0,Wunderground v.1.15,2013-03-13 09:35:00,
2013-03-13 04:40:00,49.2,40.9,30.20,SE,138,2.0,2.0,73,0.00,,,0.00,0,Wunderground v.1.15,2013-03-13 09:40:00,
2013-03-13 04:45:00,49.1,40.8,30.21,SE,138,1.0,2.0,73,0.00,,,0.00,0,Wunderground v.1.15,2013-03-13 09:45:00,
2013-03-13 04:50:00,49.0,40.7,30.21,SE,138,1.0,1.0,73,0.00,,,0.00,0,Wunderground v.1.15,2013-03-13 09:50:00,
2013-03-13 04:55:00,48.9,40.6,30.21,SE,138,1.0,1.0,73,0.00,,,0.00,0,Wunderground v.1.15,2013-03-13 09:55:00,
2013-03-13 05:10:00,48.6,40.7,30.22,SE,138,1.0,1.0,74,0.00,,,0.00,0,Wunderground v.1.15,2013-03-13 10:10:00,
2013-03-13 05:15:00,48.5,40.6,30.22,SE,138,1.0,2.0,74,0.00,,,0.00,0,Wunderground v.1.15,2013-03-13 10:15:00,
2013-03-13 05:20:00,48.5,40.9,30.22,SE,138,2.0,2.0,75,0.00,,,0.00,0,Wunderground v.1.15,2013-03-13 10:20:00,
2013-03-13 05:30:00,48.5,40.9,30.23,SE,136,2.0,3.0,75,0.00,,,0.00,0,Wunderground v.1.15,2013-03-13 10:30:00,
2013-03-13 05:35:00,48.5,40.9,30.23,SE,136,2.0,3.0,75,0.00,,,0.00,0,Wunderground v.1.15,2013-03-13 10:35:00,
2013-03-13 05:40:00,48.6,41.4,30.23,SE,134,2.0,3.0,76,0.00,,,0.00,0,Wunderground v.1.15,2013-03-13 10:40:00,
2013-03-13 05:45:00,48.6,41.4,30.24,SE,133,2.0,3.0,76,0.00,,,0.00,0,Wunderground v.1.15,2013-03-13 10:45:00,
2013-03-13 05:50:00,48.7,41.5,30.24,SE,132,2.0,2.0,76,0.00,,,0.00,0,Wunderground v.1.15,2013-03-13 10:50:00,
2013-03-13 05:55:00,48.7,41.5,30.24,SE,132,2.0,2.0,76,0.00,,,0.00,0,Wunderground v.1.15,2013-03-13 10:55:00,
2013-03-13 06:00:00,48.8,41.9,30.24,SE,132,2.0,2.0,77,0.00,,,0.00,0,Wunderground v.1.15,2013-03-13 11:00:00,
2013-03-13 06:10:00,48.8,42.2,30.24,SE,130,2.0,2.0,78,0.00,,,0.00,0,Wunderground v.1.15,2013-03-13 11:10:00,
2013-03-13 06:15:00,48.7,42.1,30.24,SE,132,2.0,2.0,78,0.00,,,0.00,0,Wunderground v.1.15,2013-03-13 11:15:00,
2013-03-13 06:20:00,48.7,42.1,30.24,SE,132,1.0,1.0,78,0.00,,,0.00,0,Wunderground v.1.15,2013-03-13 11:20:00,
2013-03-13 06:25:00,48.6,42.0,30.24,SE,132,1.0,1.0,78,0.00,,,0.00,0,Wunderground v.1.15,2013-03-13 11:25:00,
2013-03-13 06:30:00,48.5,42.3,30.25,SE,131,1.0,3.0,79,0.00,,,0.00,0,Wunderground v.1.15,2013-03-13 11:30:00,
2013-03-13 06:35:00,48.5,42.6,30.25,SE,130,2.0,3.0,80,0.00,,,0.00,0,Wunderground v.1.15,2013-03-13 11:35:00,
2013-03-13 06:40:00,48.5,42.6,30.25,SE,130,2.0,2.0,80,0.00,,,0.00,0,Wunderground v.1.15,2013-03-13 11:40:00,
2013-03-13 06:50:00,48.5,42.9,30.25,SE,128,2.0,3.0,81,0.00,,,0.00,0,Wunderground v.1.15,2013-03-13 11:50:00,
2013-03-13 06:55:00,48.5,42.9,30.25,SE,128,2.0,3.0,81,0.00,,,0.00,0,Wunderground v.1.15,2013-03-13 11:55:00,
2013-03-13 07:06:00,48.4,43.2,30.26,SE,126,2.0,3.0,82,0.00,,,0.00,0,Wunderground v.1.15,2013-03-13 12:06:00,
2013-03-13 07:10:00,48.4,43.2,30.26,SE,125,2.0,4.0,82,0.00,,,0.00,0,Wunderground v.1.15,2013-03-13 12:10:00,
2013-03-13 07:15:00,48.4,43.5,30.27,ESE,123,3.0,4.0,83,0.00,,,0.00,0,Wunderground v.1.15,2013-03-13 12:15:00,
2013-03-13 07:20:00,48.3,43.4,30.27,ESE,119,3.0,3.0,83,0.00,,,0.00,0,Wunderground v.1.15,2013-03-13 12:20:00,
2013-03-13 07:25:00,48.2,43.3,30.27,ESE,118,2.0,3.0,83,0.00,,,0.00,0,Wunderground v.1.15,2013-03-13 12:25:00,
2013-03-13 07:30:00,48.1,43.2,30.27,ESE,117,2.0,4.0,83,0.00,,,0.00,0,Wunderground v.1.15,2013-03-13 12:30:00,
2013-03-13 07:35:00,48.0,43.1,30.27,ESE,115,2.0,4.0,83,0.00,,,0.00,0,Wunderground v.1.15,2013-03-13 12:35:00,
2013-03-13 07:40:00,47.9,43.3,30.27,ESE,109,3.0,3.0,84,0.00,,,0.00,0,Wunderground v.1.15,2013-03-13 12:40:00,
2013-03-13 07:45:00,47.9,43.3,30.28,ESE,108,2.0,3.0,84,0.00,,,0.00,0,Wunderground v.1.15,2013-03-13 12:45:00,
2013-03-13 07:50:00,47.8,43.2,30.28,ESE,108,1.0,3.0,84,0.00,,,0.00,9,Wunderground v.1.15,2013-03-13 12:50:00,
2013-03-13 07:55:00,47.8,43.2,30.28,ESE,109,1.0,3.0,84,0.00,,,0.00,11,Wunderground v.1.15,2013-03-13 12:55:00,
2013-03-13 08:00:00,47.8,43.2,30.29,ESE,109,1.0,1.0,84,0.00,,,0.00,14,Wunderground v.1.15,2013-03-13 13:00:00,
2013-03-13 08:06:00,47.8,43.2,30.29,ESE,108,1.0,2.0,84,0.00,,,0.00,19,Wunderground v.1.15,2013-03-13 13:06:00,
2013-03-13 08:15:00,47.9,43.6,30.29,ESE,108,1.0,1.0,85,0.00,,,0.00,25,Wunderground v.1.15,2013-03-13 13:15:00,
2013-03-13 08:20:00,48.1,43.8,30.29,ESE,109,1.0,3.0,85,0.00,,,0.00,47,Wunderground v.1.15,2013-03-13 13:20:00,
2013-03-13 08:25:00,48.2,43.9,30.29,ESE,107,1.0,3.0,85,0.00,,,0.00,70,Wunderground v.1.15,2013-03-13 13:25:00,
2013-03-13 08:30:00,48.3,44.0,30.30,ESE,109,1.0,1.0,85,0.00,,,0.00,49,Wunderground v.1.15,2013-03-13 13:30:00,
2013-03-13 08:35:00,48.7,44.7,30.30,ESE,107,1.0,3.0,86,0.00,,,0.00,58,Wunderground v.1.15,2013-03-13 13:35:00,
2013-03-13 08:40:00,49.1,44.8,30.30,East,92,3.0,4.0,85,0.00,,,0.00,84,Wunderground v.1.15,2013-03-13 13:40:00,
2013-03-13 08:45:00,49.6,45.3,30.30,East,92,3.0,4.0,85,0.00,,,0.00,93,Wunderground v.1.15,2013-03-13 13:45:00,
2013-03-13 08:50:00,50.1,45.8,30.30,East,93,3.0,3.0,85,0.00,,,0.00,62,Wunderground v.1.15,2013-03-13 13:50:00,
2013-03-13 09:00:00,51.1,46.1,30.31,East,90,3.0,3.0,83,0.00,,,0.00,172,Wunderground v.1.15,2013-03-13 14:00:00,
2013-03-13 09:06:00,51.7,46.7,30.31,East,91,3.0,3.0,83,0.00,,,0.00,125,Wunderground v.1.15,2013-03-13 14:06:00,
2013-03-13 09:10:00,52.1,47.1,30.31,East,90,2.0,2.0,83,0.00,,,0.00,165,Wunderground v.1.15,2013-03-13 14:10:00,
2013-03-13 09:15:00,52.9,47.2,30.32,East,86,3.0,3.0,81,0.00,,,0.00,158,Wunderground v.1.15,2013-03-13 14:15:00,
2013-03-13 09:20:00,54.3,47.9,30.32,East,85,3.0,3.0,79,0.00,,,0.00,202,Wunderground v.1.15,2013-03-13 14:20:00,
2013-03-13 09:25:00,55.3,48.6,30.32,East,82,3.0,3.0,78,0.00,,,0.00,295,Wunderground v.1.15,2013-03-13 14:25:00,
2013-03-13 09:30:00,55.8,48.0,30.33,ENE,67,4.0,4.0,75,0.00,,,0.00,258,Wunderground v.1.15,2013-03-13 14:30:00,
2013-03-13 09:35:00,56.3,48.1,30.33,NE,53,5.0,7.0,74,0.00,,,0.00,295,Wunderground v.1.15,2013-03-13 14:35:00,
2013-03-13 09:45:00,57.0,48.1,30.33,NE,51,5.0,7.0,72,0.00,,,0.00,376,Wunderground v.1.15,2013-03-13 14:45:00,
2013-03-13 09:50:00,57.4,48.1,30.33,NE,43,4.0,4.0,71,0.00,,,0.00,399,Wunderground v.1.15,2013-03-13 14:50:00,
2013-03-13 09:55:00,57.7,48.0,30.33,NE,42,4.0,6.0,70,0.00,,,0.00,415,Wunderground v.1.15,2013-03-13 14:55:00,
2013-03-13 10:00:00,58.2,48.5,30.33,NE,42,4.0,4.0,70,0.00,,,0.00,436,Wunderground v.1.15,2013-03-13 15:00:00,
2013-03-13 10:06:00,59.0,48.4,30.33,NE,42,4.0,5.0,68,0.00,,,0.00,457,Wunderground v.1.15,2013-03-13 15:06:00,
2013-03-13 10:10:00,59.0,48.4,30.33,NE,43,4.0,4.0,68,0.00,,,0.00,473,Wunderground v.1.15,2013-03-13 15:10:00,
2013-03-13 10:15:00,59.5,48.5,30.34,NE,40,4.0,4.0,67,0.00,,,0.00,489,Wunderground v.1.15,2013-03-13 15:15:00,
2013-03-13 10:20:00,60.1,49.1,30.34,NE,41,3.0,3.0,67,0.00,,,0.00,504,Wunderground v.1.15,2013-03-13 15:20:00,
2013-03-13 10:25:00,60.6,48.8,30.34,NE,40,3.0,3.0,65,0.00,,,0.00,522,Wunderground v.1.15,2013-03-13 15:25:00,
2013-03-13 10:30:00,61.2,48.9,30.35,NE,41,3.0,5.0,64,0.00,,,0.00,534,Wunderground v.1.15,2013-03-13 15:30:00,
2013-03-13 10:35:00,61.4,48.7,30.35,NE,45,3.0,5.0,63,0.00,,,0.00,554,Wunderground v.1.15,2013-03-13 15:35:00,
2013-03-13 10:40:00,61.8,49.1,30.35,NE,45,3.0,3.0,63,0.00,,,0.00,564,Wunderground v.1.15,2013-03-13 15:40:00,
2013-03-13 10:45:00,62.1,48.9,30.35,NE,44,3.0,3.0,62,0.00,,,0.00,580,Wunderground v.1.15,2013-03-13 15:45:00,
2013-03-13 10:50:00,62.8,49.6,30.35,NE,45,3.0,5.0,62,0.00,,,0.00,594,Wunderground v.1.15,2013-03-13 15:50:00,
2013-03-13 10:55:00,63.0,48.9,30.35,NE,45,3.0,5.0,60,0.00,,,0.00,610,Wunderground v.1.15,2013-03-13 15:55:00,
2013-03-13 11:10:00,64.9,50.2,30.35,NE,48,2.0,2.0,59,0.00,,,0.00,652,Wunderground v.1.15,2013-03-13 16:10:00,
2013-03-13 11:15:00,65.2,49.6,30.35,NE,49,3.0,4.0,57,0.00,,,0.00,668,Wunderground v.1.15,2013-03-13 16:15:00,
2013-03-13 11:20:00,65.0,48.4,30.35,NE,48,3.0,5.0,55,0.00,,,0.00,677,Wunderground v.1.15,2013-03-13 16:20:00,
2013-03-13 11:30:00,65.9,48.8,30.35,NE,48,3.0,3.0,54,0.00,,,0.00,700,Wunderground v.1.15,2013-03-13 16:30:00,
2013-03-13 11:35:00,66.5,46.7,30.35,East,92,3.0,3.0,49,0.00,,,0.00,712,Wunderground v.1.15,2013-03-13 16:35:00,
2013-03-13 11:40:00,66.9,47.1,30.35,East,92,4.0,4.0,49,0.00,,,0.00,721,Wunderground v.1.15,2013-03-13 16:40:00,
2013-03-13 11:50:00,67.6,44.3,30.35,East,93,2.0,6.0,43,0.00,,,0.00,747,Wunderground v.1.15,2013-03-13 16:50:00,
2013-03-13 11:55:00,68.1,45.4,30.35,East,94,3.0,6.0,44,0.00,,,0.00,752,Wunderground v.1.15,2013-03-13 16:55:00,
2013-03-13 12:00:00,69.0,43.7,30.34,ESE,113,5.0,5.0,40,0.00,,,0.00,759,Wunderground v.1.15,2013-03-13 17:00:00,
2013-03-13 12:06:00,68.8,44.1,30.34,ESE,121,6.0,6.0,41,0.00,,,0.00,773,Wunderground v.1.15,2013-03-13 17:06:00,
2013-03-13 12:10:00,69.0,44.3,30.34,ESE,115,5.0,5.0,41,0.00,,,0.00,782,Wunderground v.1.15,2013-03-13 17:10:00,
2013-03-13 12:15:00,69.2,44.5,30.33,ESE,120,4.0,8.0,41,0.00,,,0.00,789,Wunderground v.1.15,2013-03-13 17:15:00,
2013-03-13 12:20:00,69.3,45.2,30.33,ESE,107,5.0,5.0,42,0.00,,,0.00,798,Wunderground v.1.15,2013-03-13 17:20:00,
2013-03-13 12:25:00,69.5,44.8,30.33,SE,133,6.0,9.0,41,0.00,,,0.00,803,Wunderground v.1.15,2013-03-13 17:25:00,
2013-03-13 12:30:00,69.7,44.3,30.33,SE,129,6.0,7.0,40,0.00,,,0.00,810,Wunderground v.1.15,2013-03-13 17:30:00,
2013-03-13 12:35:00,70.1,43.3,30.33,ESE,110,5.0,7.0,38,0.00,,,0.00,821,Wunderground v.1.15,2013-03-13 17:35:00,
2013-03-13 12:40:00,70.3,43.5,30.33,ESE,105,4.0,4.0,38,0.00,,,0.00,824,Wunderground v.1.15,2013-03-13 17:40:00,
2013-03-13 12:45:00,70.1,44.0,30.33,ESE,115,5.0,6.0,39,0.00,,,0.00,828,Wunderground v.1.15,2013-03-13 17:45:00,
2013-03-13 12:50:00,71.0,44.8,30.33,ESE,116,4.0,4.0,39,0.00,,,0.00,840,Wunderground v.1.15,2013-03-13 17:50:00,
2013-03-13 12:55:00,71.1,43.5,30.33,SE,124,5.0,9.0,37,0.00,,,0.00,840,Wunderground v.1.15,2013-03-13 17:55:00,
2013-03-13 13:06:00,71.3,45.1,30.32,ESE,107,3.0,9.0,39,0.00,,,0.00,847,Wunderground v.1.15,2013-03-13 18:06:00,
2013-03-13 13:15:00,71.0,46.7,30.31,SE,133,5.0,6.0,42,0.00,,,0.00,853,Wunderground v.1.15,2013-03-13 18:15:00,
2013-03-13 13:20:00,71.8,45.5,30.31,ESE,116,3.0,4.0,39,0.00,,,0.00,853,Wunderground v.1.15,2013-03-13 18:20:00,
2013-03-13 13:25:00,71.3,45.7,30.31,ESE,115,3.0,4.0,40,0.00,,,0.00,854,Wunderground v.1.15,2013-03-13 18:25:00,
2013-03-13 13:30:00,71.3,44.4,30.30,East,96,3.0,3.0,38,0.00,,,0.00,858,Wunderground v.1.15,2013-03-13 18:30:00,
2013-03-13 13:35:00,72.2,46.5,30.30,ESE,114,3.0,5.0,40,0.00,,,0.00,858,Wunderground v.1.15,2013-03-13 18:35:00,
2013-03-13 13:40:00,72.6,46.2,30.30,ESE,110,4.0,4.0,39,0.00,,,0.00,856,Wunderground v.1.15,2013-03-13 18:40:00,
2013-03-13 13:50:00,72.9,45.1,30.29,ESE,102,4.0,6.0,37,0.00,,,0.00,860,Wunderground v.1.15,2013-03-13 18:50:00,
2013-03-13 13:55:00,73.5,44.9,30.29,ESE,113,4.0,6.0,36,0.00,,,0.00,854,Wunderground v.1.15,2013-03-13 18:55:00,
2013-03-13 14:00:00,73.8,45.9,30.28,ESE,113,3.0,3.0,37,0.00,,,0.00,856,Wunderground v.1.15,2013-03-13 19:00:00,
2013-03-13 14:06:00,74.2,44.8,30.28,South,187,3.0,11.0,35,0.00,,,0.00,856,Wunderground v.1.15,2013-03-13 19:06:00,
2013-03-13 14:10:00,74.0,45.3,30.28,South,183,5.0,5.0,36,0.00,,,0.00,851,Wunderground v.1.15,2013-03-13 19:10:00,
2013-03-13 14:15:00,73.9,45.3,30.27,South,183,4.0,5.0,36,0.00,,,0.00,849,Wunderground v.1.15,2013-03-13 19:15:00,
2013-03-13 14:20:00,74.5,44.3,30.27,SSW,210,4.0,8.0,34,0.00,,,0.00,846,Wunderground v.1.15,2013-03-13 19:20:00,
2013-03-13 14:25:00,75.2,44.9,30.27,SSW,196,7.0,8.0,34,0.00,,,0.00,838,Wunderground v.1.15,2013-03-13 19:25:00,
2013-03-13 14:30:00,74.6,43.6,30.27,SE,144,5.0,5.0,33,0.00,,,0.00,835,Wunderground v.1.15,2013-03-13 19:30:00,
2013-03-13 14:35:00,73.8,43.7,30.27,SE,144,3.0,5.0,34,0.00,,,0.00,831,Wunderground v.1.15,2013-03-13 19:35:00,
2013-03-13 14:40:00,74.3,42.5,30.27,SSE,156,3.0,3.0,32,0.00,,,0.00,828,Wunderground v.1.15,2013-03-13 19:40:00,
2013-03-13 14:45:00,73.8,43.7,30.25,SSE,158,4.0,9.0,34,0.00,,,0.00,823,Wunderground v.1.15,2013-03-13 19:45:00,
2013-03-13 14:50:00,74.5,42.7,30.25,SSE,153,5.0,5.0,32,0.00,,,0.00,812,Wunderground v.1.15,2013-03-13 19:50:00,
2013-03-13 15:00:00,74.1,43.1,30.24,SSE,154,2.0,2.0,33,0.00,,,0.00,800,Wunderground v.1.15,2013-03-13 20:00:00,
2013-03-13 15:10:00,75.0,44.7,30.24,SSW,194,7.0,7.0,34,0.00,,,0.00,782,Wunderground v.1.15,2013-03-13 20:10:00,
2013-03-13 15:20:00,75.0,43.9,30.24,SSE,155,4.0,4.0,33,0.00,,,0.00,770,Wunderground v.1.15,2013-03-13 20:20:00,
2013-03-13 15:25:00,74.9,42.2,30.24,SSE,155,2.0,4.0,31,0.00,,,0.00,758,Wunderground v.1.15,2013-03-13 20:25:00,
2013-03-13 15:30:00,75.3,43.4,30.22,South,171,2.0,7.0,32,0.00,,,0.00,751,Wunderground v.1.15,2013-03-13 20:30:00,
2013-03-13 15:35:00,77.0,43.2,30.22,SE,140,5.0,12.0,30,0.00,,,0.00,740,Wunderground v.1.15,2013-03-13 20:35:00,
2013-03-13 15:45:00,75.7,44.5,30.22,SSW,192,7.0,10.0,33,0.00,,,0.00,719,Wunderground v.1.15,2013-03-13 20:45:00,
2013-03-13 15:50:00,76.5,43.6,30.22,SSE,161,6.0,6.0,31,0.00,,,0.00,705,Wunderground v.1.15,2013-03-13 20:50:00,
2013-03-13 15:55:00,76.1,43.3,30.22,SSE,159,5.0,6.0,31,0.00,,,0.00,603,Wunderground v.1.15,2013-03-13 20:55:00,
2013-03-13 16:00:00,75.7,42.9,30.22,SE,136,5.0,6.0,31,0.00,,,0.00,684,Wunderground v.1.15,2013-03-13 21:00:00,
2013-03-13 16:06:00,76.6,42.8,30.22,SSE,168,7.0,10.0,30,0.00,,,0.00,666,Wunderground v.1.15,2013-03-13 21:06:00,
2013-03-13 16:10:00,76.7,42.9,30.22,South,184,8.0,13.0,30,0.00,,,0.00,657,Wunderground v.1.15,2013-03-13 21:10:00,
2013-03-13 16:15:00,76.8,42.1,30.21,South,178,7.0,13.0,29,0.00,,,0.00,645,Wunderground v.1.15,2013-03-13 21:15:00,
2013-03-13 16:20:00,76.5,42.7,30.21,South,187,5.0,13.0,30,0.00,,,0.00,629,Wunderground v.1.15,2013-03-13 21:20:00,
2013-03-13 16:25:00,76.9,43.1,30.21,SSE,163,7.0,13.0,30,0.00,,,0.00,619,Wunderground v.1.15,2013-03-13 21:25:00,
2013-03-13 16:30:00,76.8,43.9,30.21,SSW,209,9.0,9.0,31,0.00,,,0.00,603,Wunderground v.1.15,2013-03-13 21:30:00,
2013-03-13 16:35:00,77.2,43.4,30.21,South,169,7.0,11.0,30,0.00,,,0.00,585,Wunderground v.1.15,2013-03-13 21:35:00,
2013-03-13 16:40:00,76.7,42.9,30.21,South,182,6.0,10.0,30,0.00,,,0.00,570,Wunderground v.1.15,2013-03-13 21:40:00,
2013-03-13 16:45:00,76.4,42.7,30.21,South,178,7.0,10.0,30,0.00,,,0.00,555,Wunderground v.1.15,2013-03-13 21:45:00,
2013-03-13 16:50:00,75.8,43.0,30.21,SE,128,6.0,6.0,31,0.00,,,0.00,540,Wunderground v.1.15,2013-03-13 21:50:00,
2013-03-13 16:55:00,75.8,43.0,30.21,SSE,168,4.0,6.0,31,0.00,,,0.00,526,Wunderground v.1.15,2013-03-13 21:55:00,
2013-03-13 17:00:00,76.1,44.1,30.20,SSE,168,3.0,3.0,32,0.00,,,0.00,513,Wunderground v.1.15,2013-03-13 22:00:00,
2013-03-13 17:06:00,75.9,43.9,30.20,SE,144,4.0,4.0,32,0.00,,,0.00,490,Wunderground v.1.15,2013-03-13 22:06:00,
2013-03-13 17:10:00,76.2,44.2,30.20,South,172,6.0,9.0,32,0.00,,,0.00,475,Wunderground v.1.15,2013-03-13 22:10:00,
2013-03-13 17:15:00,75.7,43.7,30.20,SE,138,6.0,9.0,32,0.00,,,0.00,459,Wunderground v.1.15,2013-03-13 22:15:00,
2013-03-13 17:20:00,76.0,44.0,30.20,SSW,209,6.0,6.0,32,0.00,,,0.00,441,Wunderground v.1.15,2013-03-13 22:20:00,
2013-03-13 17:30:00,75.8,43.0,30.20,SE,146,6.0,8.0,31,0.00,,,0.00,411,Wunderground v.1.15,2013-03-13 22:30:00,
2013-03-13 17:35:00,75.2,42.5,30.20,SE,144,5.0,8.0,31,0.00,,,0.00,390,Wunderground v.1.15,2013-03-13 22:35:00,
2013-03-13 17:40:00,75.3,43.4,30.20,SE,146,4.0,6.0,32,0.00,,,0.00,376,Wunderground v.1.15,2013-03-13 22:40:00,
2013-03-13 17:50:00,74.9,43.0,30.20,SE,128,6.0,6.0,32,0.00,,,0.00,341,Wunderground v.1.15,2013-03-13 22:50:00,
2013-03-13 18:00:00,75.3,43.4,30.19,SSE,150,5.0,7.0,32,0.00,,,0.00,306,Wunderground v.1.15,2013-03-13 23:00:00,
2013-03-13 18:10:00,74.7,42.9,30.19,SE,145,3.0,3.0,32,0.00,,,0.00,274,Wunderground v.1.15,2013-03-13 23:10:00,
2013-03-13 18:15:00,74.7,42.9,30.19,SE,140,3.0,4.0,32,0.00,,,0.00,258,Wunderground v.1.15,2013-03-13 23:15:00,
2013-03-13 18:20:00,74.6,43.6,30.19,East,99,4.0,6.0,33,0.00,,,0.00,241,Wunderground v.1.15,2013-03-13 23:20:00,
2013-03-13 18:25:00,74.3,43.3,30.19,SE,136,6.0,6.0,33,0.00,,,0.00,225,Wunderground v.1.15,2013-03-13 23:25:00,
2013-03-13 18:35:00,74.1,43.1,30.19,SSE,156,5.0,8.0,33,0.00,,,0.00,62,Wunderground v.1.15,2013-03-13 23:35:00,
2013-03-13 18:40:00,73.9,43.8,30.19,SE,129,5.0,8.0,34,0.00,,,0.00,72,Wunderground v.1.15,2013-03-13 23:40:00,
2013-03-13 18:50:00,73.6,43.5,30.19,SE,124,5.0,5.0,34,0.00,,,0.00,60,Wunderground v.1.15,2013-03-13 23:50:00,
2013-03-13 18:55:00,73.5,43.4,30.19,SE,129,5.0,5.0,34,0.00,,,0.00,37,Wunderground v.1.15,2013-03-13 23:55:00,
2013-03-13 19:00:00,73.3,43.2,30.20,ESE,121,5.0,5.0,34,0.00,,,0.00,39,Wunderground v.1.15,2013-03-14 00:00:00,
2013-03-13 19:06:00,73.1,43.8,30.20,SE,137,5.0,5.0,35,0.00,,,0.00,35,Wunderground v.1.15,2013-03-14 00:06:00,
2013-03-13 19:10:00,73.0,43.7,30.20,SE,141,5.0,7.0,35,0.00,,,0.00,28,Wunderground v.1.15,2013-03-14 00:10:00,
2013-03-13 19:15:00,72.9,42.9,30.20,SE,141,5.0,7.0,34,0.00,,,0.00,23,Wunderground v.1.15,2013-03-14 00:15:00,
2013-03-13 19:20:00,72.8,43.5,30.20,SE,144,5.0,8.0,35,0.00,,,0.00,19,Wunderground v.1.15,2013-03-14 00:20:00,
2013-03-13 19:30:00,72.5,43.3,30.20,SE,134,4.0,5.0,35,0.00,,,0.00,12,Wunderground v.1.15,2013-03-14 00:30:00,
2013-03-13 19:35:00,72.2,43.0,30.20,SE,137,5.0,5.0,35,0.00,,,0.00,9,Wunderground v.1.15,2013-03-14 00:35:00,
2013-03-13 19:45:00,71.8,43.4,30.20,SE,137,3.0,4.0,36,0.00,,,0.00,0,Wunderground v.1.15,2013-03-14 00:45:00,
2013-03-13 19:50:00,71.5,43.1,30.20,SE,137,3.0,3.0,36,0.00,,,0.00,0,Wunderground v.1.15,2013-03-14 00:50:00,
2013-03-13 19:55:00,71.3,43.0,30.20,SE,137,3.0,5.0,36,0.00,,,0.00,0,Wunderground v.1.15,2013-03-14 00:55:00,
2013-03-13 20:00:00,71.0,42.7,30.21,SE,137,3.0,3.0,36,0.00,,,0.00,0,Wunderground v.1.15,2013-03-14 01:00:00,
2013-03-13 20:10:00,70.5,43.0,30.21,SE,137,2.0,2.0,37,0.00,,,0.00,0,Wunderground v.1.15,2013-03-14 01:10:00,
2013-03-13 20:15:00,70.1,43.3,30.21,SE,137,2.0,2.0,38,0.00,,,0.00,0,Wunderground v.1.15,2013-03-14 01:15:00,
2013-03-13 20:20:00,69.7,42.9,30.21,SE,137,2.0,2.0,38,0.00,,,0.00,0,Wunderground v.1.15,2013-03-14 01:20:00,
2013-03-13 20:25:00,69.4,42.7,30.21,SE,137,3.0,3.0,38,0.00,,,0.00,0,Wunderground v.1.15,2013-03-14 01:25:00,
2013-03-13 20:30:00,69.1,42.4,30.21,SE,137,3.0,3.0,38,0.00,,,0.00,0,Wunderground v.1.15,2013-03-14 01:30:00,
2013-03-13 20:35:00,68.6,42.6,30.21,SE,136,3.0,4.0,39,0.00,,,0.00,0,Wunderground v.1.15,2013-03-14 01:35:00,
2013-03-13 20:45:00,68.1,42.2,30.21,SE,136,3.0,4.0,39,0.00,,,0.00,0,Wunderground v.1.15,2013-03-14 01:45:00,
2013-03-13 20:50:00,67.8,42.6,30.21,SE,136,3.0,3.0,40,0.00,,,0.00,0,Wunderground v.1.15,2013-03-14 01:50:00,
2013-03-13 21:00:00,67.3,42.1,30.21,SE,136,3.0,3.0,40,0.00,,,0.00,0,Wunderground v.1.15,2013-03-14 02:00:00,
2013-03-13 21:06:00,67.0,42.5,30.21,SE,136,2.0,4.0,41,0.00,,,0.00,0,Wunderground v.1.15,2013-03-14 02:06:00,
2013-03-13 21:10:00,66.7,42.2,30.21,SE,141,4.0,6.0,41,0.00,,,0.00,0,Wunderground v.1.15,2013-03-14 02:10:00,
2013-03-13 21:20:00,66.3,42.5,30.22,SE,146,6.0,6.0,42,0.00,,,0.00,0,Wunderground v.1.15,2013-03-14 02:20:00,
2013-03-13 21:25:00,66.1,41.7,30.22,SSE,159,6.0,7.0,41,0.00,,,0.00,0,Wunderground v.1.15,2013-03-14 02:25:00,
2013-03-13 21:30:00,66.0,41.6,30.23,SSE,157,7.0,7.0,41,0.00,,,0.00,0,Wunderground v.1.15,2013-03-14 02:30:00,
2013-03-13 21:35:00,65.8,41.4,30.23,SSE,155,7.0,9.0,41,0.00,,,0.00,0,Wunderground v.1.15,2013-03-14 02:35:00,
2013-03-13 21:40:00,65.7,41.3,30.23,SSE,149,7.0,11.0,41,0.00,,,0.00,0,Wunderground v.1.15,2013-03-14 02:40:00,
2013-03-13 21:50:00,65.2,40.9,30.24,SSE,159,6.0,6.0,41,0.00,,,0.00,0,Wunderground v.1.15,2013-03-14 02:50:00,
2013-03-13 21:55:00,64.9,40.6,30.24,South,169,7.0,12.0,41,0.00,,,0.00,0,Wunderground v.1.15,2013-03-14 02:55:00,
2013-03-13 22:00:00,64.7,40.4,30.24,SSE,159,10.0,14.0,41,0.00,,,0.00,0,Wunderground v.1.15,2013-03-14 03:00:00,
2013-03-13 22:10:00,64.3,40.1,30.24,SE,142,10.0,10.0,41,0.00,,,0.00,0,Wunderground v.1.15,2013-03-14 03:10:00,
2013-03-13 22:15:00,64.0,39.8,30.25,South,173,10.0,14.0,41,0.00,,,0.00,0,Wunderground v.1.15,2013-03-14 03:15:00,
2013-03-13 22:20:00,63.7,40.2,30.25,SE,145,9.0,9.0,42,0.00,,,0.00,0,Wunderground v.1.15,2013-03-14 03:20:00,
2013-03-13 22:30:00,63.1,40.2,30.26,SSE,155,7.0,7.0,43,0.00,,,0.00,0,Wunderground v.1.15,2013-03-14 03:30:00,
2013-03-13 22:35:00,62.7,39.9,30.26,SSE,157,6.0,7.0,43,0.00,,,0.00,0,Wunderground v.1.15,2013-03-14 03:35:00,
2013-03-13 22:45:00,62.3,40.1,30.27,South,176,5.0,6.0,44,0.00,,,0.00,0,Wunderground v.1.15,2013-03-14 03:45:00,
2013-03-13 22:50:00,62.0,40.4,30.27,SSE,159,3.0,5.0,45,0.00,,,0.00,0,Wunderground v.1.15,2013-03-14 03:50:00,
2013-03-13 23:00:00,61.5,39.9,30.27,SE,145,6.0,11.0,45,0.00,,,0.00,0,Wunderground v.1.15,2013-03-14 04:00:00,
2013-03-13 23:10:00,61.0,40.6,30.27,SE,132,6.0,6.0,47,0.00,,,0.00,0,Wunderground v.1.15,2013-03-14 04:10:00,
2013-03-13 23:15:00,60.7,40.3,30.27,SE,141,6.0,6.0,47,0.00,,,0.00,0,Wunderground v.1.15,2013-03-14 04:15:00,
2013-03-13 23:20:00,60.5,40.2,30.27,SE,139,6.0,6.0,47,0.00,,,0.00,0,Wunderground v.1.15,2013-03-14 04:20:00,
2013-03-13 23:30:00,59.9,40.1,30.27,SE,131,4.0,4.0,48,0.00,,,0.00,0,Wunderground v.1.15,2013-03-14 04:30:00,
2013-03-13 23:35:00,59.6,39.9,30.27,SE,138,4.0,4.0,48,0.00,,,0.00,0,Wunderground v.1.15,2013-03-14 04:35:00,
2013-03-13 23:40:00,59.5,39.8,30.27,SE,137,4.0,4.0,48,0.00,,,0.00,0,Wunderground v.1.15,2013-03-14 04:40:00,
2013-03-13 23:45:00,59.2,40.0,30.27,SE,137,3.0,4.0,49,0.00,,,0.00,0,Wunderground v.1.15,2013-03-14 04:45:00,
2013-03-13 23:50:00,59.0,39.9,30.27,SE,138,2.0,6.0,49,0.00,,,0.00,0,Wunderground v.1.15,2013-03-14 04:50:00,
2013-03-13 23:55:00,59.0,39.9,30.27,SE,137,2.0,6.0,49,0.00,,,0.00,0,Wunderground v.1.15,2013-03-14 04:55:00,